Weather in Guliston

Uzbekistan     41°24′22″N   69°18′41″E
temp.,
°C
wind,
m/s
gust,
m/s
humid.,
%
clouds,
%
prec.,
mm/h
press.,
hPa
HPBL,
m
5 august, thu
thu523:00+29nne51119100 0.0 1005350
02:00+27ene342863 0.0 100590
05:00+26e232995 0.0 100550
08:00+30s462093 0.0 1006535
11:00+35ssw4415100 0.0 10051359
14:00+38w211332 0.0 10033115
17:00+38nnw431163 0.0 10014209
20:00+33nne8131740 0.0 1002676
6 august, fri
fri623:00+29nne61120100 0.0 1002260
02:00+27e453010 0.0 1002118
05:00+26ese123220 0.0 100369
08:00+29sse33200 0.0 1004416
11:00+35ssw21130 0.0 10031081
14:00+39w33110 0.0 10013389
17:00+39nw53100 0.0 10003925
20:00+34n612130 0.0 1001579
7 august, sat
sat723:00+29nne49194 0.0 1002193
02:00+26ne23253 0.0 100265
05:00+25ese34250 0.0 1004102
08:00+29sse34170 0.0 1005398
11:00+35se12130 0.0 10041111
14:00+39wsw1292 0.0 10023461
17:00+39nnw8690 0.0 10023581
20:00+33nnw611140 0.0 1003522
8 august, sun
sun823:00+29nne35160 0.0 1004136
02:00+27e22190 0.0 100452
05:00+25ese34210 0.0 100680
08:00+31ese34150 0.0 1007301
11:00+37nw22100 0.0 10062215
14:00+40nnw5480 0.0 10043618
17:00+40nnw5580 0.0 10043466
20:00+33nnw612150 0.0 1005447
9 august, mon
mon923:00+29n613170 0.0 1006429
02:00+27n46230 0.0 1006118
05:00+25wnw11240 0.0 100738
08:00+27se33200 0.0 1009375
11:00+34nw12130 0.0 10081357
14:00+37nw65100 0.0 10072447
17:00+36nnw76100 0.0 10082096
20:00+30nnw712100 0.0 1009502